Location: Newark
(50.0306°N, 2.3272°E)
Time: 16:46:43
(UTC+00:00)

A-11 Canister half - Pass Details

Date: 13 December 2019
Orbit: 1525 x 1684 km, 47.3° (Epoch: 19 January)

Event Time Altitude Azimuth Distance (km) Brightness Sun altitude
Rises 05:58:25 0° 237° (WSW) 4,908 11.3 -15.4°
Reaches altitude 10° 06:01:36 10° 235° (SW) 3,931 10.8 -14.9°
Maximum altitude 06:11:31 62° 158° (SSE) 1,853 9.6 -13.4°
Drops below altitude 10° 06:21:25 10° 81° (E) 3,929 12.1 -11.9°
Sets 06:24:36 0° 78° (ENE) 4,905 12.6 -11.5°
